User: anonymous   Login
Location: Hartman Creek State Park
(44.3257°N, 89.2134°W)
Time: 18:50:50
(UTC-05:00)
Language:

Terra - Orbit

View from above orbital plane
View from above orbital plane
View from above satellite
View from above satellite

Ground track
Ground track

The orbit data is extracted from the following two-line orbital elements,

1 25994U 99068A   17228.22229196  .00000154  00000-0  44318-4 0  9998
2 25994  98.2043 302.4011 0000727  88.1328 271.9944 14.57107840939413
Epoch (UTC): 16 August 2017 05:20:06
Eccentricity: 0.0000727
inclination: 98.2043°
perigee height: 702 km
apogee height: 703 km
right ascension of ascending node: 302.4011°
argument of perigee: 88.1328°
revolutions per day: 14.57107840
mean anomaly at epoch: 271.9944°
orbit number at epoch: 93941

The dashed part of the orbit path shows where the satellite is in the earth's shadow,  

DLR